period_start,C,m1,H,J0,J1,J2,J3,J4,J5,JA,JB,JC,JD,JJ,JK,JN,#
2014-07-17 00:02:02,0.01,0.71,0.00,30.57,34.98,37.14,9.25,36.84,1009.29,2006.23,3207.95,3050.03,3310.74,499.90,480.79,30.02,0000 0000 0000 0000 000000
2014-07-17 00:07:02,0.01,0.71,0.00,30.61,35.00,37.15,9.21,36.74,1009.29,2006.14,3207.26,3050.00,3310.05,500.21,481.12,30.06,0000 0000 0000 0000 000000
2014-07-17 00:12:03,0.01,0.71,0.00,30.67,35.00,37.14,9.26,36.83,1009.29,2006.14,3207.01,3049.81,3309.99,499.93,480.61,30.10,0000 0000 0000 0000 000000
2014-07-17 00:17:05,0.04,0.71,0.00,30.69,35.02,37.15,9.22,36.67,1009.16,2006.04,3206.58,3049.15,3309.49,499.74,480.32,30.15,0000 0000 0000 0000 000000
2014-07-17 00:22:06,0.01,0.71,0.00,30.72,35.03,37.17,9.25,36.87,1009.12,2006.01,3206.02,3048.99,3309.02,500.28,480.80,30.19,0000 0000 0000 0000 000000
2014-07-17 00:27:07,0.03,0.71,0.00,30.75,35.05,37.20,9.22,36.80,1009.17,2006.00,3205.71,3048.66,3308.83,500.00,480.51,30.23,0000 0000 0000 0000 000000
2014-07-17 00:32:08,0.03,0.71,0.00,30.79,35.06,37.20,9.22,36.83,1009.16,2006.00,3205.06,3048.06,3308.19,500.24,480.63,30.27,0000 0000 0000 0000 000000
2014-07-17 00:37:09,0.00,0.71,0.00,30.82,35.08,37.22,9.18,36.80,1009.29,2006.00,3204.98,3048.00,3308.00,499.98,480.40,30.31,0000 0000 0000 0000 000000
2014-07-17 00:42:10,0.03,0.71,0.00,30.88,35.10,37.24,9.26,36.79,1009.29,2005.99,3204.33,3047.86,3307.78,500.09,480.42,30.36,0000 0000 0000 0000 000000
2014-07-17 00:47:11,0.03,0.71,0.00,30.93,35.12,37.25,9.21,36.82,1009.29,2005.99,3204.00,3047.27,3307.11,499.73,479.87,30.40,0000 0000 0000 0000 000000
2014-07-17 00:52:12,0.01,0.71,0.00,30.97,35.14,37.27,9.20,36.81,1009.30,2005.92,3203.71,3047.00,3306.96,499.89,480.06,30.44,0000 0000 0000 0000 000000
2014-07-17 00:57:13,0.02,0.72,0.00,30.99,35.16,37.29,9.21,37.08,1009.33,2005.83,3203.05,3046.85,3306.50,499.74,479.80,30.48,0000 0000 0000 0000 000000
2014-07-17 01:02:14,-0.01,0.72,0.00,31.02,35.19,37.32,9.22,37.06,1009.33,2005.51,3202.90,3046.15,3306.04,500.01,479.97,30.52,0000 0000 0000 0000 000000
2014-07-17 01:07:15,-0.01,0.71,0.00,31.06,35.21,37.33,9.21,37.03,1009.34,2005.25,3202.23,3046.00,3305.91,499.91,479.99,30.56,0000 0000 0000 0000 000000
2014-07-17 01:12:16,0.01,0.71,0.00,31.10,35.23,37.36,9.21,37.05,1009.31,2005.05,3201.98,3045.84,3305.22,500.06,480.20,30.61,0000 0000 0000 0000 000000
2014-07-17 01:17:17,0.03,0.72,0.00,31.14,35.25,37.40,9.17,36.99,1009.31,2005.00,3201.40,3045.12,3305.00,499.57,479.47,30.65,0000 0000 0000 0000 000000
2014-07-17 01:22:19,0.01,0.72,0.00,31.18,35.28,37.43,9.19,37.00,1009.30,2005.00,3201.00,3045.00,3304.58,500.03,479.84,30.69,0000 0000 0000 0000 000000
2014-07-17 01:27:20,0.03,0.72,0.00,31.23,35.30,37.47,9.23,37.10,1009.30,2005.00,3200.56,3044.60,3304.03,499.52,479.40,30.73,0000 0000 0000 0000 000000
2014-07-17 01:32:21,0.01,0.72,0.00,31.25,35.33,37.50,9.21,37.01,1009.30,2004.98,3200.03,3044.04,3303.98,499.74,479.48,30.77,0000 0000 0000 0000 000000
2014-07-17 01:37:22,0.01,0.72,0.00,31.29,35.35,37.51,9.25,36.98,1009.31,2004.96,3199.96,3044.00,3303.51,500.40,479.96,30.82,0000 0000 0000 0000 000000
2014-07-17 01:42:23,0.01,0.72,0.00,31.32,35.38,37.54,9.17,36.95,1009.31,2004.85,3199.34,3043.88,3303.02,500.22,480.02,30.86,0000 0000 0000 0000 000000
2014-07-17 01:47:24,-0.03,0.72,0.00,31.37,35.41,37.57,9.26,37.01,1009.30,2004.35,3199.01,3043.18,3302.79,499.96,479.45,30.90,0000 0000 0000 0000 000000
2014-07-17 01:52:25,0.00,0.72,0.00,31.39,35.43,37.59,9.13,36.88,1009.29,2004.13,3198.79,3042.99,3302.11,500.07,479.60,30.94,0000 0000 0000 0000 000000
2014-07-17 01:57:25,0.03,0.72,0.00,31.42,35.46,37.63,9.21,36.90,1009.29,2004.05,3198.02,3042.53,3301.83,499.89,479.42,30.98,0000 0000 0000 0000 000000
2014-07-17 02:02:27,0.03,0.72,0.00,31.46,35.48,37.67,9.26,37.02,1009.30,2004.00,3197.30,3042.01,3301.09,500.51,479.96,31.02,0000 0000 0000 0000 000000
2014-07-17 02:07:28,0.01,0.72,0.00,31.48,35.51,37.69,9.22,36.98,1009.33,2004.00,3197.01,3041.80,3300.95,500.15,479.55,31.07,0000 0000 0000 0000 000000
2014-07-17 02:12:29,0.03,0.72,0.00,31.51,35.53,37.71,9.19,36.98,1009.50,2003.98,3196.73,3041.14,3300.32,500.10,479.45,31.11,0000 0000 0000 0000 000000
2014-07-17 02:17:30,0.01,0.73,0.00,31.55,35.56,37.74,9.16,36.95,1009.50,2003.95,3196.11,3041.00,3300.01,500.29,479.64,31.15,0000 0000 0000 0000 000000
2014-07-17 02:22:32,-0.02,0.72,0.00,31.60,35.59,37.76,9.22,36.97,1009.65,2003.71,3195.99,3040.87,3299.88,499.85,479.39,31.19,0000 0000 0000 0000 000000
2014-07-17 02:27:33,-0.00,0.72,0.00,31.63,35.61,37.80,9.18,36.86,1009.62,2003.30,3195.53,3040.18,3299.15,499.88,479.22,31.23,0000 0000 0000 0000 000000
2014-07-17 02:32:34,-0.00,0.72,0.00,31.66,35.64,37.83,9.21,36.81,1009.46,2003.05,3195.02,3040.00,3298.98,499.98,479.20,31.28,0000 0000 0000 0000 000000
2014-07-17 02:37:34,0.02,0.72,0.00,31.70,35.67,37.86,9.19,36.81,1009.34,2003.00,3194.76,3039.88,3298.43,499.91,478.96,31.32,0000 0000 0000 0000 000000
2014-07-17 02:42:35,0.03,0.73,0.00,31.73,35.70,37.88,9.15,36.82,1009.32,2003.00,3194.15,3039.32,3298.02,499.82,478.72,31.36,0000 0000 0000 0000 000000
2014-07-17 02:47:37,0.00,0.73,0.00,31.74,35.73,37.91,9.21,36.84,1009.33,2002.99,3193.98,3039.00,3297.91,500.13,479.02,31.40,0000 0000 0000 0000 000000
2014-07-17 02:52:38,0.04,0.73,0.00,31.77,35.76,37.94,9.23,36.83,1009.37,2002.96,3193.34,3038.57,3297.18,499.98,479.01,31.44,0000 0000 0000 0000 000000
2014-07-17 02:57:39,-0.01,0.73,0.00,31.80,35.78,37.98,9.19,36.85,1009.33,2002.76,3192.97,3038.04,3296.96,500.05,479.08,31.48,0000 0000 0000 0000 000000
2014-07-17 03:02:40,0.00,0.73,0.00,31.80,35.81,38.00,9.19,36.92,1009.36,2002.31,3192.33,3037.90,3296.27,500.38,479.36,31.53,0000 0000 0000 0000 000000
2014-07-17 03:07:41,0.00,0.73,0.00,31.78,35.84,38.04,9.16,36.91,1009.48,2002.09,3192.00,3037.18,3296.00,499.95,478.93,31.57,0000 0000 0000 0000 000000
2014-07-17 03:12:42,0.02,0.73,0.00,31.75,35.86,38.07,9.23,36.86,1009.58,2002.00,3191.58,3036.99,3295.60,499.92,478.92,31.61,0000 0000 0000 0000 000000
2014-07-17 03:17:43,0.02,0.73,0.00,31.75,35.88,38.09,9.20,36.80,1009.71,2002.00,3191.04,3036.80,3295.05,500.18,479.30,31.65,0000 0000 0000 0000 000000
2014-07-17 03:22:44,0.02,0.73,0.00,31.76,35.90,38.11,9.23,36.88,1009.71,2002.00,3190.94,3036.11,3294.93,500.23,479.49,31.69,0000 0000 0000 0000 000000
2014-07-17 03:27:45,0.02,0.73,0.00,31.76,35.92,38.14,9.19,36.92,1009.71,2001.97,3190.37,3036.00,3294.34,499.71,478.96,31.74,0000 0000 0000 0000 000000
2014-07-17 03:32:46,0.00,0.73,0.00,31.75,35.95,38.16,9.21,36.89,1009.61,2001.96,3190.01,3035.98,3294.01,500.04,479.05,31.78,0000 0000 0000 0000 000000
2014-07-17 03:37:48,-0.01,0.73,0.00,31.72,35.97,38.19,9.18,36.83,1009.73,2001.80,3189.98,3035.67,3293.99,500.18,479.27,31.82,0000 0000 0000 0000 000000
2014-07-17 03:42:49,-0.03,0.73,0.00,31.69,35.98,38.20,9.22,36.88,1009.78,2001.36,3189.82,3035.16,3293.83,500.20,479.29,31.86,0000 0000 0000 0000 000000
2014-07-17 03:47:50,0.01,0.73,0.00,31.69,36.00,38.22,9.16,36.79,1009.78,2001.17,3189.29,3035.02,3293.41,499.67,478.89,31.90,0000 0000 0000 0000 000000
2014-07-17 03:52:51,-0.00,0.73,0.00,31.73,36.00,38.23,9.15,36.84,1009.78,2001.08,3189.07,3035.00,3293.12,499.79,478.99,31.94,0000 0000 0000 0000 000000
2014-07-17 03:57:52,-0.00,0.73,0.00,31.74,36.02,38.24,9.16,36.94,1009.78,2001.05,3189.00,3034.99,3293.01,499.83,479.02,31.99,0000 0000 0000 0000 000000
2014-07-17 04:02:53,0.00,0.73,0.00,31.79,36.03,38.23,9.20,36.90,1009.80,2001.01,3188.99,3034.87,3293.00,500.12,479.26,32.03,0000 0000 0000 0000 000000
2014-07-17 04:07:54,0.01,0.73,0.00,31.82,36.05,38.24,9.24,36.93,1009.79,2001.00,3188.95,3034.46,3292.96,499.35,478.48,32.07,0000 0000 0000 0000 000000
2014-07-17 04:12:56,0.02,0.73,0.00,31.86,36.05,38.25,9.21,36.98,1009.78,2001.00,3188.68,3034.12,3292.74,499.99,478.89,32.11,0000 0000 0000 0000 000000
2014-07-17 04:17:56,0.02,0.73,0.00,31.90,36.08,38.26,9.18,36.91,1009.78,2000.99,3188.17,3034.00,3292.13,500.10,478.97,32.15,0000 0000 0000 0000 000000
2014-07-17 04:22:57,0.00,0.73,0.00,31.95,36.09,38.28,9.18,36.95,1009.78,2000.97,3188.03,3034.00,3292.01,499.90,478.80,32.19,0000 0000 0000 0000 000000
2014-07-17 04:27:58,-0.00,0.73,0.00,31.96,36.10,38.31,9.20,36.98,1009.78,2000.98,3188.01,3034.00,3292.00,499.92,478.59,32.24,0000 0000 0000 0000 000000
2014-07-17 04:32:59,0.04,0.74,0.00,31.98,36.12,38.32,9.14,36.96,1009.78,2000.81,3187.23,3033.24,3291.38,499.91,478.69,32.28,0000 0000 0000 0000 000000
2014-07-17 04:38:00,-0.01,0.74,0.00,32.01,36.14,38.34,9.16,36.96,1009.78,2000.71,3186.99,3033.00,3291.01,500.10,478.91,32.32,0000 0000 0000 0000 000000
2014-07-17 04:43:02,-0.03,0.73,0.00,32.04,36.15,38.36,9.20,36.87,1009.78,2000.37,3186.93,3032.97,3290.98,500.04,478.69,32.36,0000 0000 0000 0000 000000
2014-07-17 04:48:03,0.04,0.73,0.00,32.05,36.18,38.38,9.20,36.87,1009.78,2000.11,3186.40,3032.51,3290.51,499.78,478.56,32.40,0000 0000 0000 0000 000000
2014-07-17 04:53:04,0.00,0.74,0.00,32.06,36.19,38.39,9.17,36.83,1009.78,2000.03,3185.96,3032.00,3289.97,499.85,478.52,32.44,0000 0000 0000 0000 000000
2014-07-17 04:58:05,-0.00,0.74,0.00,32.08,36.21,38.42,9.18,36.92,1009.77,2000.02,3185.83,3031.95,3289.86,499.53,478.28,32.49,0000 0000 0000 0000 000000
2014-07-17 05:03:06,0.03,0.74,0.00,32.11,36.23,38.44,9.23,36.97,1009.78,2000.00,3185.28,3031.61,3289.29,499.79,478.41,32.53,0000 0000 0000 0000 000000
2014-07-17 05:08:07,0.02,0.74,0.00,32.14,36.25,38.47,9.20,36.91,1009.78,2000.00,3185.02,3031.06,3289.01,500.18,478.76,32.57,0000 0000 0000 0000 000000
2014-07-17 05:13:08,0.00,0.74,0.00,32.16,36.27,38.49,9.17,36.88,1009.79,2000.00,3184.98,3031.00,3288.98,499.64,478.23,32.61,0000 0000 0000 0000 000000
2014-07-17 05:18:09,0.00,0.74,0.00,32.19,36.29,38.51,9.17,36.92,1009.79,1999.99,3184.92,3030.98,3288.89,499.92,478.35,32.65,0000 0000 0000 0000 000000
2014-07-17 05:23:10,0.03,0.74,0.00,32.20,36.31,38.53,9.13,36.84,1009.79,1999.96,3184.46,3030.73,3288.40,500.03,478.48,32.69,0000 0000 0000 0000 000000
2014-07-17 05:28:11,0.01,0.74,0.00,32.22,36.33,38.55,9.22,36.89,1009.78,1999.94,3184.10,3030.41,3288.11,500.04,478.55,32.73,0000 0000 0000 0000 000000
2014-07-17 05:33:12,-0.00,0.74,0.00,32.26,36.35,38.56,9.17,36.78,1009.79,1999.84,3184.01,3030.11,3288.02,500.46,478.94,32.78,0000 0000 0000 0000 000000
2014-07-17 05:38:13,-0.03,0.74,0.00,32.27,36.37,38.59,9.11,36.84,1009.78,1999.58,3183.99,3030.01,3287.99,500.04,478.10,32.82,0000 0000 0000 0000 000000
2014-07-17 05:43:14,-0.03,0.74,0.00,32.26,36.39,38.62,9.16,36.88,1009.78,1999.32,3183.97,3030.00,3287.98,499.70,478.01,32.86,0000 0000 0000 0000 000000
2014-07-17 05:48:15,-0.00,0.74,0.00,32.28,36.41,38.63,9.19,36.95,1009.80,1999.13,3183.62,3029.96,3287.71,500.13,478.43,32.90,0000 0000 0000 0000 000000
2014-07-17 05:53:16,0.02,0.74,0.00,32.32,36.43,38.66,9.21,36.90,1009.79,1999.03,3183.05,3029.61,3287.11,499.96,478.19,32.94,0000 0000 0000 0000 000000
2014-07-17 05:58:17,0.01,0.74,0.00,32.34,36.45,38.67,9.19,36.80,1009.78,1999.00,3183.00,3029.12,3287.00,500.19,478.50,32.98,0000 0000 0000 0000 000000
2014-07-17 06:03:18,0.00,0.74,0.00,32.34,36.47,38.70,9.16,36.88,1009.78,1999.00,3183.00,3029.03,3287.00,500.11,478.18,33.02,0000 0000 0000 0000 000000
2014-07-17 06:08:19,0.02,0.74,0.00,32.35,36.49,38.71,9.17,36.86,1009.78,1999.00,3182.67,3028.99,3286.67,499.88,478.33,33.07,0000 0000 0000 0000 000000
2014-07-17 06:13:20,0.02,0.74,0.00,32.35,36.51,38.74,9.18,36.88,1009.89,1998.98,3182.08,3028.76,3286.04,500.11,478.46,33.11,0000 0000 0000 0000 000000
2014-07-17 06:18:21,0.01,0.74,0.00,32.37,36.53,38.75,9.26,36.78,1009.81,1998.91,3182.00,3028.23,3286.00,500.38,478.56,33.15,0000 0000 0000 0000 000000
2014-07-17 06:23:22,-0.01,0.74,0.00,32.40,36.55,38.76,9.10,36.88,1009.88,1998.77,3181.99,3028.04,3285.98,499.78,478.03,33.19,0000 0000 0000 0000 000000
2014-07-17 06:28:23,-0.01,0.74,0.00,32.39,36.56,38.78,9.19,36.80,1010.11,1998.50,3181.81,3028.00,3285.69,500.26,478.78,33.23,0000 0000 0000 0000 000000
2014-07-17 06:33:24,-0.02,0.74,0.00,32.41,36.58,38.79,9.15,36.88,1010.24,1998.15,3181.37,3027.99,3285.20,499.84,478.08,33.27,0000 0000 0000 0000 000000
2014-07-17 06:38:25,-0.00,0.74,0.00,32.43,36.60,38.82,9.19,36.83,1010.25,1998.08,3181.12,3027.96,3285.04,500.22,478.49,33.32,0000 0000 0000 0000 000000
2014-07-17 06:43:26,0.00,0.74,0.00,32.45,36.61,38.84,9.15,36.84,1010.27,1998.02,3181.02,3027.87,3285.01,499.69,477.98,33.36,0000 0000 0000 0000 000000
2014-07-17 06:48:27,0.01,0.74,0.00,32.44,36.63,38.84,9.21,36.91,1010.26,1998.01,3181.00,3027.57,3285.00,500.09,478.49,33.40,0000 0000 0000 0000 000000
2014-07-17 06:53:28,0.01,0.74,0.00,32.44,36.64,38.79,9.19,36.82,1010.22,1998.00,3180.99,3027.16,3284.96,500.11,478.45,33.44,0000 0000 0000 0000 000000
2014-07-17 06:58:30,0.01,0.74,0.00,32.38,36.65,38.81,9.21,36.87,1010.27,1998.00,3180.84,3027.00,3284.43,500.24,478.67,33.48,0000 0000 0000 0000 000000
2014-07-17 07:03:31,0.01,0.74,0.00,32.36,36.66,38.82,9.20,36.81,1010.27,1997.99,3180.67,3027.00,3284.35,500.05,478.32,33.52,0000 0000 0000 0000 000000
2014-07-17 07:08:32,0.05,0.74,0.00,32.37,36.68,38.84,9.20,36.89,1010.28,1997.98,3180.07,3026.25,3283.83,499.94,478.36,33.56,0000 0000 0000 0000 000000
2014-07-17 07:13:33,0.00,0.74,0.00,32.37,36.68,38.84,9.16,36.79,1010.31,1997.95,3179.95,3026.00,3283.22,499.67,478.36,33.61,0000 0000 0000 0000 000000
2014-07-17 07:18:33,-0.01,0.74,0.00,32.38,36.69,38.84,9.17,36.90,1010.33,1997.81,3179.56,3025.97,3283.03,499.93,478.26,33.65,0000 0000 0000 0000 000000
2014-07-17 07:23:34,0.03,0.75,0.00,32.40,36.70,38.85,9.21,36.83,1010.64,1997.66,3179.03,3025.21,3282.75,500.14,478.61,33.69,0000 0000 0000 0000 000000
2014-07-17 07:28:36,-0.01,0.75,0.00,32.39,36.70,38.85,9.25,36.83,1010.76,1997.52,3179.00,3025.04,3282.48,500.19,478.95,33.73,0000 0000 0000 0000 000000
2014-07-17 07:33:36,-0.00,0.75,0.00,32.36,36.70,38.85,9.15,36.88,1010.77,1997.36,3178.89,3025.00,3282.20,499.68,478.29,33.77,0000 0000 0000 0000 000000
2014-07-17 07:38:38,-0.00,0.75,0.00,32.35,36.72,38.87,9.17,36.86,1010.83,1997.18,3178.17,3024.99,3282.00,500.04,478.76,33.81,0000 0000 0000 0000 000000
2014-07-17 07:43:39,0.00,0.75,0.00,32.38,36.73,38.88,9.15,36.77,1010.79,1997.17,3178.01,3024.88,3281.96,500.26,478.96,33.86,0000 0000 0000 0000 000000
2014-07-17 07:48:40,0.00,0.75,0.00,32.37,36.73,38.87,9.15,36.76,1010.87,1997.16,3178.00,3024.83,3281.96,499.71,478.51,33.90,0000 0000 0000 0000 000000
2014-07-17 07:53:41,0.01,0.75,0.00,32.37,36.73,38.88,9.20,36.77,1010.81,1997.11,3177.99,3024.53,3281.87,500.23,478.79,33.94,0000 0000 0000 0000 000000
2014-07-17 07:58:42,0.00,0.75,0.00,32.37,36.75,38.89,9.21,36.77,1010.90,1997.08,3177.97,3024.31,3281.73,500.13,478.85,33.98,0000 0000 0000 0000 000000
2014-07-17 08:03:44,0.01,0.75,0.00,32.35,36.75,38.90,9.21,36.78,1010.91,1997.11,3177.91,3024.18,3281.63,500.01,478.86,34.02,0000 0000 0000 0000 000000
2014-07-17 08:08:45,0.01,0.75,0.00,32.36,36.75,38.92,9.19,36.83,1011.03,1997.04,3177.60,3024.04,3281.20,500.09,478.92,34.06,0000 0000 0000 0000 000000
2014-07-17 08:13:46,0.01,0.75,0.00,32.34,36.75,38.91,9.13,36.88,1011.22,1997.04,3177.27,3024.00,3281.09,499.88,478.85,34.10,0000 0000 0000 0000 000000
2014-07-17 08:18:47,0.00,0.75,0.00,32.32,36.75,38.91,9.23,36.82,1011.24,1997.01,3177.05,3024.00,3281.03,499.89,478.79,34.15,0000 0000 0000 0000 000000
2014-07-17 08:23:48,-0.00,0.75,0.00,32.35,36.77,38.92,9.23,36.94,1011.24,1997.00,3177.00,3024.00,3281.00,500.15,479.19,34.19,0000 0000 0000 0000 000000
2014-07-17 08:28:49,0.00,0.75,0.00,32.36,36.77,38.92,9.20,36.83,1011.24,1997.00,3177.00,3024.00,3281.00,500.07,478.89,34.23,0000 0000 0000 0000 000000
2014-07-17 08:33:50,0.00,0.75,0.00,32.37,36.78,38.92,9.21,36.86,1011.16,1997.00,3176.98,3023.95,3280.98,499.88,478.76,34.27,0000 0000 0000 0000 000000
2014-07-17 08:38:51,0.00,0.75,0.00,32.39,36.78,38.93,9.21,36.83,1011.05,1996.99,3176.96,3023.92,3280.93,500.11,478.69,34.31,0000 0000 0000 0000 000000
2014-07-17 08:43:52,0.00,0.75,0.00,32.38,36.78,38.93,9.22,36.87,1011.09,1996.99,3176.90,3023.91,3280.91,499.81,478.63,34.35,0000 0000 0000 0000 000000
2014-07-17 08:48:53,0.01,0.75,0.00,32.38,36.78,38.94,9.18,36.95,1011.21,1996.99,3176.80,3023.78,3280.81,500.18,479.04,34.39,0000 0000 0000 0000 000000
2014-07-17 08:53:54,0.01,0.75,0.00,32.39,36.78,38.94,9.21,36.92,1011.21,1996.99,3176.59,3023.62,3280.66,500.08,479.11,34.44,0000 0000 0000 0000 000000
2014-07-17 08:58:55,-0.00,0.75,0.00,32.36,36.78,38.94,9.17,36.82,1011.21,1996.99,3176.43,3023.55,3280.61,500.21,479.18,34.48,0000 0000 0000 0000 000000
2014-07-17 09:03:56,-0.00,0.75,0.00,32.37,36.78,38.94,9.22,36.93,1011.23,1996.99,3176.52,3023.57,3280.67,500.12,479.10,34.52,0000 0000 0000 0000 000000
2014-07-17 09:08:58,0.03,0.75,0.00,32.36,36.79,38.93,9.21,36.87,1011.24,1996.99,3176.20,3023.26,3280.32,499.86,478.72,34.56,0000 0000 0000 0000 000000
2014-07-17 09:13:59,-0.00,0.75,0.00,32.36,36.79,38.93,9.26,36.84,1011.24,1996.99,3176.11,3023.27,3280.27,499.97,478.87,34.60,0000 0000 0000 0000 000000
2014-07-17 09:19:00,0.01,0.75,0.00,32.36,36.79,38.94,9.16,36.88,1011.25,1996.99,3176.04,3023.17,3280.17,500.14,479.06,34.64,0000 0000 0000 0000 000000
2014-07-17 09:24:01,-0.00,0.75,0.00,32.37,36.80,38.94,9.17,36.87,1011.25,1996.99,3176.05,3023.12,3280.13,500.02,478.86,34.69,0000 0000 0000 0000 000000
2014-07-17 09:29:02,0.00,0.75,0.00,32.37,36.80,38.93,9.20,36.88,1011.25,1996.99,3176.01,3023.06,3280.04,500.05,479.11,34.73,0000 0000 0000 0000 000000
2014-07-17 09:34:03,0.00,0.75,0.00,32.35,36.80,38.95,9.15,36.90,1011.25,1996.99,3176.00,3023.02,3280.03,500.06,478.94,34.77,0000 0000 0000 0000 000000
2014-07-17 09:39:04,0.00,0.75,0.00,32.35,36.80,38.94,9.20,36.80,1011.25,1996.99,3176.00,3023.04,3280.03,500.09,478.96,34.81,0000 0000 0000 0000 000000
2014-07-17 09:44:05,0.00,0.75,0.00,32.34,36.80,38.93,9.14,36.89,1011.25,1996.99,3176.00,3023.05,3280.02,500.09,479.09,34.85,0000 0000 0000 0000 000000
2014-07-17 09:49:06,0.00,0.75,0.00,32.34,36.80,38.93,9.21,36.92,1011.25,1996.98,3175.94,3023.00,3280.00,499.94,478.94,34.89,0000 0000 0000 0000 000000
2014-07-17 09:54:07,0.01,0.75,0.00,32.32,36.80,38.93,9.22,36.87,1011.25,1996.96,3175.47,3022.99,3279.99,500.00,479.11,34.93,0000 0000 0000 0000 000000
2014-07-17 09:59:08,0.00,0.75,0.00,32.31,36.80,38.93,9.16,36.84,1011.26,1996.98,3175.03,3022.97,3279.97,499.93,478.78,34.98,0000 0000 0000 0000 000000
2014-07-17 10:04:09,0.01,0.75,0.00,32.31,36.80,38.93,9.19,36.86,1011.26,1996.97,3174.94,3022.85,3279.77,500.04,479.05,35.02,0000 0000 0000 0000 000000
2014-07-17 10:09:10,0.01,0.75,0.00,32.31,36.79,38.93,9.18,36.88,1011.25,1996.97,3174.66,3022.64,3279.56,500.05,479.06,35.06,0000 0000 0000 0000 000000
2014-07-17 10:14:11,0.04,0.75,0.00,32.30,36.78,38.93,9.15,36.89,1011.26,1996.98,3174.12,3022.32,3279.21,499.92,478.94,35.10,0000 0000 0000 0000 000000
2014-07-17 10:19:13,0.00,0.75,0.00,32.28,36.78,38.93,9.28,36.88,1011.52,1996.96,3174.00,3022.04,3279.01,500.34,479.57,35.14,0000 0000 0000 0000 000000
2014-07-17 10:24:13,0.00,0.75,0.00,32.28,36.78,38.93,9.25,36.83,1011.32,1996.96,3173.95,3022.01,3279.00,500.15,479.24,35.18,0000 0000 0000 0000 000000
2014-07-17 10:29:14,0.01,0.75,0.00,32.27,36.78,38.91,9.20,36.99,1011.59,1996.96,3173.62,3022.00,3279.00,499.83,479.12,35.23,0000 0000 0000 0000 000000
2014-07-17 10:34:15,0.01,0.75,0.00,32.26,36.78,38.91,9.16,36.88,1011.67,1996.98,3173.23,3022.00,3279.00,500.01,479.27,35.27,0000 0000 0000 0000 000000
2014-07-17 10:39:16,0.00,0.75,0.00,32.24,36.78,38.91,9.17,36.83,1011.72,1996.98,3173.06,3022.00,3279.00,500.01,479.30,35.31,0000 0000 0000 0000 000000
2014-07-17 10:44:17,0.00,0.76,0.00,32.22,36.77,38.89,9.27,36.88,1011.87,1996.99,3173.00,3022.00,3279.00,499.89,479.36,35.35,0000 0000 0000 0000 000000
2014-07-17 10:49:18,0.00,0.76,0.00,32.22,36.75,38.90,9.12,36.83,1012.21,1996.99,3173.00,3022.00,3278.98,499.71,479.49,35.39,0000 0000 0000 0000 000000
2014-07-17 10:54:19,0.06,0.76,0.00,32.21,36.75,38.90,9.15,36.79,1012.05,1996.99,3172.20,3021.59,3278.37,499.71,479.34,35.43,0000 0000 0000 0000 000000
2014-07-17 10:59:20,0.08,0.76,0.00,32.19,36.75,38.87,9.20,36.73,1012.15,1996.99,3170.69,3020.69,3277.52,500.22,479.80,35.47,0000 0000 0000 0000 000000
2014-07-17 11:04:22,0.28,0.77,0.00,32.18,36.75,38.88,9.14,36.74,1012.22,1996.99,3166.19,3017.87,3274.47,499.42,479.18,35.52,0000 0000 0000 0000 000000
2014-07-17 11:09:22,0.16,0.78,0.00,32.16,36.73,38.87,9.15,36.86,1012.22,1996.99,3162.75,3015.62,3272.03,499.51,479.22,35.56,0000 0000 0000 0000 000000
2014-07-17 11:14:23,0.06,0.78,0.00,32.16,36.73,38.84,9.19,36.78,1012.23,1996.99,3161.45,3014.48,3271.02,499.90,479.78,35.60,0000 0000 0000 0000 000000
2014-07-17 11:19:25,-0.00,0.78,0.00,32.12,36.73,38.86,9.14,36.73,1012.23,1996.99,3161.13,3014.17,3270.96,499.72,479.44,35.64,0000 0000 0000 0000 000000
2014-07-17 11:24:26,0.01,0.78,0.00,32.11,36.71,38.86,9.25,36.80,1012.23,1996.99,3161.03,3014.11,3270.94,499.79,479.76,35.68,0000 0000 0000 0000 000000
2014-07-17 11:29:27,0.00,0.78,0.00,32.10,36.70,38.83,9.27,36.83,1012.22,1996.99,3161.01,3014.11,3270.94,500.09,479.94,35.72,0000 0000 0000 0000 000000
2014-07-17 11:34:27,0.00,0.78,0.00,32.08,36.70,38.82,9.22,36.82,1012.22,1997.00,3161.01,3014.21,3270.96,499.81,479.64,35.76,0000 0000 0000 0000 000000
2014-07-17 11:39:28,-0.00,0.78,0.00,32.05,36.68,38.83,9.24,36.75,1012.22,1997.01,3161.02,3014.31,3270.96,500.05,480.00,35.81,0000 0000 0000 0000 000000
2014-07-17 11:44:29,0.01,0.78,0.00,32.04,36.68,38.82,9.21,36.91,1012.22,1997.00,3161.00,3014.12,3270.94,499.83,479.71,35.85,0000 0000 0000 0000 000000
2014-07-17 11:49:31,0.01,0.78,0.00,32.02,36.66,38.82,9.24,36.80,1012.03,1997.01,3161.00,3014.03,3270.79,500.22,479.94,35.89,0000 0000 0000 0000 000000
2014-07-17 11:54:32,-0.00,0.78,0.00,32.01,36.65,38.79,9.26,36.78,1012.23,1997.04,3160.99,3014.09,3270.90,499.98,479.76,35.93,0000 0000 0000 0000 000000
2014-07-17 11:59:33,-0.00,0.78,0.00,32.00,36.65,38.80,9.18,36.77,1012.22,1997.07,3160.99,3014.19,3270.93,499.96,479.89,35.97,0000 0000 0000 0000 000000
2014-07-17 12:04:34,0.01,0.78,0.00,31.98,36.63,38.77,9.24,36.84,1012.22,1997.16,3160.99,3014.27,3270.97,500.07,480.00,36.01,0000 0000 0000 0000 000000
2014-07-17 12:09:34,0.01,0.78,0.00,31.96,36.63,38.77,9.25,36.87,1012.24,1997.28,3160.99,3014.45,3270.98,500.22,480.14,36.06,0000 0000 0000 0000 000000
2014-07-17 12:14:36,0.07,0.78,0.00,31.94,36.61,38.76,9.21,36.83,1012.24,1997.52,3160.67,3014.36,3270.65,499.94,479.86,36.10,0000 0000 0000 0000 000000
2014-07-17 12:19:37,0.05,0.79,0.00,31.92,36.60,38.75,9.25,36.80,1012.21,1997.69,3160.00,3013.61,3270.00,500.12,480.18,36.14,0000 0000 0000 0000 000000
2014-07-17 12:24:38,0.00,0.79,0.00,31.92,36.59,38.73,9.24,36.77,1012.06,1997.79,3159.98,3013.67,3269.98,500.30,480.34,36.18,0000 0000 0000 0000 000000
2014-07-17 12:29:39,0.00,0.79,0.00,31.88,36.58,38.72,9.29,36.88,1011.97,1997.90,3159.98,3013.84,3269.99,499.93,479.96,36.22,0000 0000 0000 0000 000000
2014-07-17 12:34:40,0.00,0.79,0.00,31.87,36.56,38.72,9.22,36.75,1011.86,1997.92,3159.99,3013.84,3269.99,499.88,479.82,36.26,0000 0000 0000 0000 000000
2014-07-17 12:39:42,0.00,0.79,0.00,31.86,36.55,38.70,9.20,36.70,1011.74,1997.96,3159.99,3013.96,3269.99,500.12,480.00,36.30,0000 0000 0000 0000 000000
2014-07-17 12:44:43,-0.00,0.79,0.00,31.86,36.54,38.70,9.20,36.80,1011.74,1997.98,3159.99,3013.98,3269.99,499.87,479.82,36.35,0000 0000 0000 0000 000000
2014-07-17 12:49:44,-0.00,0.79,0.00,31.82,36.53,38.68,9.26,36.80,1011.81,1997.98,3159.99,3013.99,3270.00,499.82,479.86,36.39,0000 0000 0000 0000 000000
2014-07-17 12:54:45,0.00,0.79,0.00,31.79,36.52,38.67,9.21,36.70,1011.87,1997.99,3159.99,3013.99,3270.00,500.17,480.35,36.43,0000 0000 0000 0000 000000
2014-07-17 12:59:46,0.00,0.79,0.00,31.78,36.50,38.66,9.21,36.79,1011.73,1997.99,3159.99,3013.99,3270.03,499.91,479.94,36.47,0000 0000 0000 0000 000000